Valley City, ND

10:11 AM CDT on August 29, 2016 (GMT -0500)
Valley City

Weather History for KBAC - December, 2012

Change the Weather History Date:

Tuesday, December 11, 2012

  Actual Average (KJMS) Record (KJMS)
Temperature  
Mean Temperature 8 °F 15 °F  
Max Temperature 12 °F 24 °F 62 °F (1939)
Min Temperature 3 °F 6 °F -32 °F (1945)
Degree Days  
Heating Degree Days 58 50  
Month to date heating degree days 527  
Since 1 July heating degree days 2611  
Cooling Degree Days 0 0  
Month to date cooling degree days 0  
Year to date cooling degree days 446  
Moisture  
Dew Point 4 °F    
Average Humidity 84    
Maximum Humidity 92    
Minimum Humidity 73    
Precipitation  
Precipitation 0.00 in 0.01 in 1.22 in (1949)
Month to date precipitation 0.14  
Year to date precipitation 18.51  
Sea Level Pressure  
Sea Level Pressure 29.79 in    
Wind  
Wind Speed 9 mph (NNW)    
Max Wind Speed 17 mph    
Max Gust Speed 23 mph    
Visibility 10 miles    
Events Snow    
T = Trace of Precipitation, MM = Missing Value Source: NWS Daily Summary

Daily Weather History Graph

Daily Weather History Graph

Search for Another Location

Airport or City:

Trip Planner

Search our weather history database for the weather conditions in past years. The results will help you decide how hot, cold, wet, or windy it might be!

Date:

Astronomy

Dec. 11, 2012 Rise Set
Actual Time 8:08 AM CST 4:43 PM CST
Civil Twilight 7:32 AM CST 5:18 PM CST
Nautical Twilight 6:54 AM CST 5:57 PM CST
Astronomical Twilight 6:17 AM CST 6:33 PM CST
Moon 6:00 AM CST (12/11) 3:26 PM CST (12/11)
Length of Visible Light 9h 45m
Length of Day
8h 35m
Waning Crescent, 4% of the Moon is Illuminated
Dec 11
Waning Crescent
Dec 13
New
Dec 19
First Quarter
Dec 28
Full
Jan 4
Last Quarter

Hourly Weather History & Observations

Time (CST) Temp. Windchill Dew Point Humidity Pressure Visibility Wind Dir Wind Speed Gust Speed Precip Events Conditions
12:15 AM 8.6 °F -6.3 °F 5.0 °F 85% 29.71 in 10.0 mi NW 11.5 mph - N/A   Clear
12:35 AM 8.6 °F -5.5 °F 5.0 °F 85% 29.71 in 10.0 mi WNW 10.4 mph - N/A   Clear
12:55 AM 6.8 °F -9.3 °F 5.0 °F 92% 29.71 in 10.0 mi NW 12.7 mph - N/A   Clear
1:15 AM 6.8 °F -7.8 °F 5.0 °F 92% 29.71 in 10.0 mi WNW 10.4 mph - N/A   Clear
1:35 AM 5.0 °F -6.9 °F 1.4 °F 85% 29.71 in 10.0 mi WNW 6.9 mph - N/A   Partly Cloudy
1:55 AM 3.2 °F -10.3 °F 1.4 °F 92% 29.72 in 10.0 mi WNW 8.1 mph - N/A   Partly Cloudy
2:15 AM 5.0 °F -10.0 °F 3.2 °F 92% 29.72 in 10.0 mi NW 10.4 mph - N/A   Mostly Cloudy
2:35 AM 8.6 °F -6.3 °F 5.0 °F 85% 29.72 in 10.0 mi NW 11.5 mph - N/A   Overcast
2:55 AM 8.6 °F -3.7 °F 5.0 °F 85% 29.72 in 10.0 mi NW 8.1 mph - N/A   Overcast
3:15 AM 6.8 °F -5.9 °F 3.2 °F 85% 29.73 in 10.0 mi NW 8.1 mph - N/A   Mostly Cloudy
3:35 AM 6.8 °F -5.9 °F 3.2 °F 85% 29.73 in 10.0 mi WNW 8.1 mph - N/A   Mostly Cloudy
3:55 AM 6.8 °F -6.9 °F 3.2 °F 85% 29.73 in 10.0 mi WNW 9.2 mph - N/A   Overcast
4:15 AM 6.8 °F -8.6 °F 5.0 °F 92% 29.74 in 10.0 mi NW 11.5 mph - N/A   Overcast
4:35 AM 8.6 °F -5.5 °F 5.0 °F 85% 29.74 in 10.0 mi NW 10.4 mph - N/A   Overcast
4:55 AM 8.6 °F -2.6 °F 5.0 °F 85% 29.74 in 9.0 mi NW 6.9 mph - N/A Snow Light Snow
5:15 AM 8.6 °F -1.3 °F 6.8 °F 92% 29.75 in 10.0 mi NNW 5.8 mph - N/A Snow Light Snow
5:35 AM 8.6 °F -6.3 °F 6.8 °F 92% 29.75 in 9.0 mi North 11.5 mph - N/A Snow Light Snow
5:55 AM 8.6 °F -4.7 °F 5.0 °F 85% 29.76 in 10.0 mi NNW 9.2 mph - N/A Snow Light Snow
6:15 AM 8.6 °F -3.7 °F 5.0 °F 85% 29.76 in 10.0 mi North 8.1 mph - N/A Snow Light Snow
6:35 AM 6.8 °F -6.9 °F 5.0 °F 92% 29.77 in 10.0 mi North 9.2 mph - N/A   Overcast
6:55 AM 6.8 °F -7.8 °F 3.2 °F 85% 29.78 in 10.0 mi North 10.4 mph - N/A   Overcast
7:15 AM 6.8 °F -6.9 °F 3.2 °F 85% 29.78 in 10.0 mi North 9.2 mph - N/A   Overcast
7:35 AM 6.8 °F -7.8 °F 3.2 °F 85% 29.80 in 10.0 mi NNW 10.4 mph - N/A Snow Light Snow
7:55 AM 6.8 °F -6.9 °F 3.2 °F 85% 29.80 in 10.0 mi NNW 9.2 mph - N/A   Overcast
8:15 AM 6.8 °F -6.9 °F 1.4 °F 79% 29.80 in 10.0 mi NNW 9.2 mph - N/A   Overcast
8:35 AM 6.8 °F -5.9 °F 3.2 °F 85% 29.80 in 9.0 mi NNW 8.1 mph - N/A Snow Light Snow
8:55 AM 6.8 °F -4.8 °F 1.4 °F 79% 29.81 in 10.0 mi NNW 6.9 mph - N/A   Overcast
9:15 AM 5.0 °F -4.1 °F 1.4 °F 85% 29.82 in 10.0 mi NW 4.6 mph - N/A   Mostly Cloudy
9:35 AM 6.8 °F -0.1 °F 1.4 °F 79% 29.82 in 10.0 mi WNW 3.5 mph - N/A   Mostly Cloudy
9:55 AM 6.8 °F -3.5 °F 1.4 °F 79% 29.83 in 10.0 mi NW 5.8 mph - N/A   Mostly Cloudy
10:15 AM 6.8 °F -2.0 °F 3.2 °F 85% 29.83 in 10.0 mi WNW 4.6 mph - N/A   Partly Cloudy
10:35 AM 8.6 °F 0.1 °F 3.2 °F 79% 29.83 in 10.0 mi NW 4.6 mph - N/A   Partly Cloudy
10:55 AM 8.6 °F 0.1 °F 1.4 °F 73% 29.84 in 10.0 mi NNW 4.6 mph - N/A   Partly Cloudy
11:15 AM 8.6 °F -2.6 °F 3.2 °F 79% 29.83 in 10.0 mi North 6.9 mph - N/A   Clear
11:35 AM 8.6 °F -1.3 °F 3.2 °F 79% 29.83 in 10.0 mi NNW 5.8 mph - N/A   Clear
11:55 AM 8.6 °F 2.0 °F 3.2 °F 79% 29.83 in 10.0 mi NNW 3.5 mph - N/A   Clear
12:15 PM 10.4 °F 4.0 °F 3.2 °F 73% 29.83 in 10.0 mi North 3.5 mph - N/A   Clear
12:35 PM 10.4 °F 0.8 °F 5.0 °F 79% 29.83 in 10.0 mi NNW 5.8 mph - N/A   Partly Cloudy
12:55 PM 10.4 °F -0.4 °F 5.0 °F 79% 29.83 in 10.0 mi NNW 6.9 mph - N/A   Partly Cloudy
1:15 PM 10.4 °F 0.8 °F 5.0 °F 79% 29.83 in 10.0 mi NNW 5.8 mph - N/A   Scattered Clouds
1:35 PM 10.4 °F 4.0 °F 5.0 °F 79% 29.82 in 10.0 mi North 3.5 mph - N/A   Partly Cloudy
1:55 PM 10.4 °F 2.2 °F 5.0 °F 79% 29.83 in 10.0 mi NNW 4.6 mph - N/A   Partly Cloudy
2:15 PM 10.4 °F - 5.0 °F 79% 29.83 in 10.0 mi Calm Calm - N/A Snow Light Snow
2:35 PM 10.4 °F 4.0 °F 5.0 °F 79% 29.83 in 10.0 mi WNW 3.5 mph - N/A   Scattered Clouds
2:55 PM 10.4 °F - 5.0 °F 79% 29.82 in 10.0 mi Calm Calm - N/A   Partly Cloudy
3:15 PM 12.2 °F - 5.0 °F 73% 29.82 in 10.0 mi Calm Calm - N/A   Clear
3:35 PM 10.4 °F - 5.0 °F 79% 29.82 in 10.0 mi Calm Calm - N/A   Clear
3:55 PM 10.4 °F - 5.0 °F 79% 29.83 in 10.0 mi Calm Calm - N/A   Clear
4:15 PM 8.6 °F 0.1 °F 3.2 °F 79% 29.82 in 10.0 mi East 4.6 mph - N/A Snow Light Snow
4:35 PM 6.8 °F -3.5 °F 1.4 °F 79% 29.83 in 10.0 mi ESE 5.8 mph - N/A   Clear
4:55 PM 6.8 °F -3.5 °F 1.4 °F 79% 29.83 in 10.0 mi SE 5.8 mph - N/A   Clear
5:15 PM 6.8 °F -3.5 °F 1.4 °F 79% 29.82 in 10.0 mi ESE 5.8 mph - N/A   Clear
5:35 PM 5.0 °F -5.6 °F 1.4 °F 85% 29.82 in 10.0 mi ESE 5.8 mph - N/A   Clear
5:55 PM 5.0 °F -5.6 °F 1.4 °F 85% 29.83 in 10.0 mi SE 5.8 mph - N/A   Clear
6:15 PM 5.0 °F -5.6 °F 1.4 °F 85% 29.83 in 10.0 mi SE 5.8 mph - N/A   Clear
6:35 PM 5.0 °F -8.1 °F 1.4 °F 85% 29.83 in 10.0 mi SE 8.1 mph - N/A   Scattered Clouds
6:55 PM 5.0 °F -8.1 °F 1.4 °F 85% 29.83 in 10.0 mi SE 8.1 mph - N/A   Scattered Clouds
7:15 PM 6.8 °F -3.5 °F 3.2 °F 85% 29.83 in 10.0 mi SE 5.8 mph - N/A   Scattered Clouds
7:35 PM 6.8 °F -6.9 °F 3.2 °F 85% 29.83 in 10.0 mi SE 9.2 mph - N/A   Mostly Cloudy
7:55 PM 6.8 °F -7.8 °F 3.2 °F 85% 29.82 in 10.0 mi SE 10.4 mph - N/A   Overcast
8:15 PM 6.8 °F -9.3 °F 3.2 °F 85% 29.83 in 10.0 mi SE 12.7 mph - N/A   Overcast
8:35 PM 6.8 °F -7.8 °F 5.0 °F 92% 29.83 in 10.0 mi ESE 10.4 mph - N/A   Overcast
8:55 PM 6.8 °F -9.3 °F 5.0 °F 92% 29.83 in 10.0 mi SE 12.7 mph - N/A   Overcast
9:15 PM 6.8 °F -10.0 °F 5.0 °F 92% 29.82 in 10.0 mi SE 13.8 mph 17.3 mph N/A   Overcast
9:35 PM 6.8 °F -8.6 °F 5.0 °F 92% 29.82 in 10.0 mi SE 11.5 mph - N/A   Mostly Cloudy
9:55 PM 6.8 °F -10.0 °F 5.0 °F 92% 29.81 in 10.0 mi SE 13.8 mph - N/A   Overcast
10:15 PM 6.8 °F -8.6 °F 5.0 °F 92% 29.80 in 10.0 mi SE 11.5 mph - N/A   Overcast
10:35 PM 8.6 °F -5.5 °F 5.0 °F 85% 29.80 in 10.0 mi ESE 10.4 mph - N/A   Overcast
10:55 PM 8.6 °F -7.0 °F 5.0 °F 85% 29.80 in 10.0 mi SE 12.7 mph 19.6 mph N/A   Overcast
11:15 PM 8.6 °F -8.9 °F 5.0 °F 85% 29.78 in 10.0 mi SE 16.1 mph - N/A Snow Light Snow
11:35 PM 8.6 °F -8.3 °F 5.0 °F 85% 29.78 in 10.0 mi SE 15.0 mph 20.7 mph N/A Snow Light Snow
11:55 PM 8.6 °F -9.5 °F 6.8 °F 92% 29.77 in 10.0 mi SE 17.3 mph 23.0 mph N/A Snow Light Snow